CAPE
182 193 109 54 13 42 335 451 335 924 982 192 254 316 214 470 604 515 173 0 113 442 726 1028 1619 1762 1547 1048 881 1002 733 704 749 662 732 352 291 418 553 737 872 914 931
284 213 93 19 18 32 173 240 880 878 345 178 210 384 330 480 487 294 135 248 303 546 609 674 1227 1376 972 729 1012 810 1060 994 844 663 358 182 170 169 210 180 176 277 302
281 72 66 14 112 158 429 876 965 1031 437 72 75 364 400 279 347 375 215 97 157 373 370 805 708 787 794 1161 1240 1198 664 583 566 355 113 155 118 79 123 178 119 108 86
273 127 74 4 135 555 1046 1013 507 95 392 494 36 99 81 208 49 274 91 62 455 253 726 859 670 807 833 825 1152 807 395 327 282 197 109 107 89 65 68 34 57 45 50
168 9 1 195 374 669 1066 909 870 786 1206 1187 191 247 326 87 0 164 406 422 376 383 610 1101 593 693 950 1023 1025 924 993 875 513 389 272 134 117 53 71 33 3 26 0
3 0 0 686 508 399 722 545 775 960 1241 814 377 382 4 1 0 3 100 571 393 499 410 356 1144 768 832 1722 1230 1107 588 420 467 438 263 99 84 45 2 9 2 55 48
0 142 275 835 523 577 629 585 702 497 978 790 510 495 48 151 335 421 336 418 624 628 448 102 496 424 278 673 1176 663 753 547 519 593 417 135 53 0 0 0 0 0 0
31 314 517 659 782 589 494 584 863 631 671 676 925 137 99 71 140 425 587 621 773 752 519 169 351 23 0 348 803 546 458 443 825 805 716 313 92 9 0 0 0 0 0
165 270 441 371 666 757 558 640 912 997 596 780 814 326 191 198 131 51 98 192 206 194 261 423 551 84 349 516 535 360 86 86 214 374 735 523 154 42 0 0 0 0 0
512 490 567 709 647 505 377 456 996 882 970 632 501 563 273 395 342 240 321 152 110 129 59 481 462 383 611 672 649 54 0 5 18 14 130 647 444 184 68 0 0 0 0
380 494 693 654 725 777 580 335 634 1211 881 769 624 608 499 397 288 387 364 334 185 194 195 428 0 15 428 689 455 42 0 0 0 0 0 3 153 191 378 297 66 0 0
205 213 648 602 673 657 664 413 418 1129 1021 765 681 586 514 478 390 170 171 158 129 317 248 198 0 0 315 536 384 7 0 0 0 0 0 0 0 0 0 7 336 150 2
269 179 535 628 648 594 644 562 771 900 875 720 585 550 604 578 561 236 178 191 245 192 263 342 16 350 496 140 60 0 0 0 0 0 0 0 0 0 1 0 0 146 153
374 241 461 540 651 643 683 629 742 734 634 760 561 751 815 635 647 305 141 304 172 190 188 230 265 272 416 188 56 0 0 0 0 0 0 0 0 0 1 3 4 3 100
185 330 518 524 652 642 593 605 555 685 745 700 652 715 755 785 713 674 314 283 189 98 90 192 283 406 106 58 92 0 0 0 0 0 0 0 0 0 0 0 0 1 8
125 78 166 427 497 699 655 654 411 448 594 566 646 584 441 613 617 618 444 341 189 141 81 5 122 205 156 212 53 0 0 0 0 0 0 0 0 0 0 0 0 0 0
191 32 104 334 415 529 702 646 580 517 505 693 622 534 553 479 507 496 618 564 345 163 331 202 164 280 140 84 0 1 2 2 3 1 2 0 0 0 0 0 0 1 1
371 353 308 365 307 251 406 572 476 475 693 676 651 465 346 612 662 528 583 595 501 427 390 409 325 262 143 39 0 1 3 6 4 3 2 0 0 0 0 0 0 0 0
370 403 296 248 290 160 202 193 311 311 329 473 578 596 434 271 355 505 526 517 495 470 420 376 290 165 160 19 1 4 2 3 4 3 2 0 0 0 0 0 0 0 0
527 458 341 133 129 138 52 74 99 61 250 391 572 601 608 562 569 356 471 443 482 438 312 245 187 189 193 73 1 0 1 4 4 2 2 2 1 0 0 0 0 0 0
631 493 351 195 104 84 38 4 0 0 101 478 665 696 599 557 551 375 475 533 493 399 328 267 160 138 139 49 29 0 0 2 5 3 1 0 0 0 0 0 0 0 0
600 639 548 459 177 178 126 48 30 56 10 3 168 506 570 596 650 444 309 311 372 353 398 328 231 145 140 148 60 1 0 1 0 1 0 0 0 0 0 0 0 0 0
249 639 696 631 545 377 257 214 204 248 250 388 560 548 512 661 693 726 415 303 299 205 250 329 245 163 113 70 87 27 0 0 0 1 0 2 0 0 0 0 0 0 0
0 147 455 696 745 700 563 506 408 339 478 605 677 756 736 721 713 660 547 330 256 162 136 123 124 127 65 16 34 5 0 1 1 3 0 1 3 1 0 0 0 0 0
26 13 89 66 63 97 64 88 168 242 421 518 712 718 737 811 681 426 493 323 202 56 0 0 0 0 0 0 0 0 0 0 0 2 1 0 2 1 1 0 0 0 0
106 94 124 156 140 186 238 273 211 268 320 358 525 528 477 742 664 375 576 362 280 192 0 0 0 0 0 0 0 0 0 0 0 2 1 0 1 0 0 0 0 0 0
CIN
-105 -133 -172 -216 -251 -139 -152 -133 -192 -155 -148 -197 -159 -209 -203 -195 -165 -154 -189 0 -151 -84 -63 -44 -13 -3 -4 -26 -32 -16 -23 -25 -25 -28 -19 -26 -28 -9 -5 -2 -1 -1 -1
-106 -133 -184 -91 -195 -252 -214 -190 -124 -125 -163 -217 -224 -210 -197 -177 -153 -179 -181 -176 -154 -105 -78 -74 -40 -23 -28 -34 -22 -17 -19 -22 -23 -33 -47 -48 -39 -30 -18 -19 -14 -8 -15
-136 -170 -177 -85 -181 -201 -146 -138 -121 -144 -167 -249 -249 -213 -215 -203 -183 -165 -185 -210 -196 -131 -110 -68 -58 -52 -37 -25 -20 -16 -28 -37 -33 -36 -61 -44 -44 -43 -24 -57 -13 -10 -12
-125 -154 -154 -101 -155 -123 -104 -114 -136 -190 -143 -147 -233 -257 -234 -202 -186 -204 -217 -74 -155 -125 -86 -73 -58 -51 -29 -20 -20 -24 -23 -24 -30 -32 -34 -38 -40 -36 -31 -43 -23 -23 -18
-134 -203 -25 -132 -119 -87 -70 -88 -97 -94 -60 -80 -179 -189 -202 -242 0 -208 -172 -157 -160 -125 -103 -66 -71 -50 -20 -12 -16 -22 -22 -17 -18 -25 -23 -31 -30 -32 -17 -26 -8 -14 0
-55 0 0 -84 -93 -91 -66 -84 -68 -81 -63 -82 -132 -127 -66 -83 0 -45 -173 -146 -138 -136 -121 -119 -57 -55 -40 -5 -12 -13 -20 -22 -26 -25 -24 -38 -33 -25 -1 -6 -2 0 0
0 -114 -98 -69 -68 -58 -66 -84 -71 -69 -57 -111 -93 -84 -164 -164 -164 -167 -174 -139 -111 -128 -114 -185 -101 -100 -91 -50 -23 -39 -33 -31 -34 -22 -23 -32 -38 0 0 0 0 0 0
-131 -80 -61 -50 -48 -55 -71 -72 -67 -51 -61 -110 -42 -132 -80 -91 -101 -136 -133 -117 -114 -117 -99 -138 -108 -231 0 -86 -44 -49 -54 -41 -18 -9 -6 -17 -24 -14 0 0 0 0 0
-83 -74 -60 -62 -56 -60 -49 -53 -52 -46 -45 -79 -97 -60 -54 -43 -82 -107 -107 -136 -150 -145 -135 -122 -95 -185 -112 -83 -69 -69 -93 -89 -65 -36 -2 -3 -11 -15 0 0 0 0 0
-51 -55 -54 -45 -49 -71 -65 -57 -39 -52 -47 -46 -92 -97 -108 -80 -31 -27 -78 -125 -161 -143 -171 -125 -111 -115 -95 -72 -66 -108 -8 -148 -131 -64 -56 -3 -5 -6 -5 0 0 0 0
-56 -44 -47 -36 -31 -39 -53 -62 -43 -35 -53 -55 -49 -56 -62 -79 -95 -39 -22 -45 -109 -150 -176 -140 0 -62 -116 -79 -80 -121 0 0 0 0 0 -94 -18 -2 0 0 -25 0 0
-86 -62 -53 -42 -32 -37 -38 -52 -74 -35 -35 -47 -57 -61 -45 -30 -26 -40 -32 -50 -65 -96 -152 -168 0 -29 -125 -85 -80 -44 0 0 0 0 0 0 0 0 0 -1 0 -3 0
-61 -63 -65 -36 -34 -33 -37 -46 -41 -38 -33 -35 -45 -51 -63 -54 -61 -60 -46 -37 -41 -103 -113 -141 -219 -138 -113 -136 -133 0 0 0 0 0 0 0 0 0 0 0 0 -2 -1
-63 -99 -66 -49 -42 -40 -36 -38 -31 -36 -41 -34 -36 -38 -39 -46 -56 -64 -47 -30 -34 -51 -90 -83 -128 -132 -102 -91 -122 0 0 0 0 0 0 0 0 -1 -1 0 0 -5 -7
-117 -85 -62 -53 -46 -53 -51 -45 -44 -26 -36 -38 -36 -42 -40 -36 -48 -55 -71 -61 -32 -30 -34 -52 -58 -101 -127 -133 -114 0 0 0 0 0 0 0 0 0 0 0 0 -8 -10
-128 -131 -113 -76 -64 -63 -62 -53 -54 -46 -37 -37 -39 -38 -44 -39 -43 -41 -49 -59 -74 -40 -27 -44 -70 -86 -112 -95 -138 0 0 0 0 0 0 0 0 0 0 0 0 0 0
-114 -89 -122 -85 -66 -60 -67 -58 -45 -44 -39 -30 -38 -42 -34 -46 -35 -36 -38 -51 -61 -67 -20 -44 -82 -92 -127 -138 0 0 0 0 0 0 0 0 0 0 0 0 0 0 0
-69 -80 -93 -101 -90 -73 -77 -63 -56 -38 -32 -26 -26 -37 -47 -36 -31 -40 -36 -34 -35 -47 -30 -20 -48 -64 -101 -163 0 0 0 0 0 0 0 0 0 0 0 0 0 0 0
-65 -57 -83 -98 -86 -91 -91 -95 -81 -54 -47 -38 -31 -28 -35 -45 -36 -36 -36 -33 -36 -41 -48 -41 -33 -88 -97 -174 0 0 0 0 0 0 0 0 0 0 0 0 0 0 0
-62 -53 -59 -90 -103 -83 -119 -113 -95 -85 -53 -45 -36 -36 -34 -30 -34 -49 -35 -34 -36 -39 -46 -45 -48 -55 -74 -115 0 0 0 0 0 0 0 0 0 0 0 0 0 0 0
-56 -64 -64 -75 -115 -82 -94 -36 0 0 -75 -34 -34 -32 -41 -39 -41 -50 -37 -34 -36 -38 -38 -42 -52 -60 -69 -111 -108 0 0 0 0 0 0 0 0 0 0 0 0 0 0
-53 -46 -62 -66 -69 -56 -64 -115 -79 -95 -134 -113 -51 -32 -35 -40 -40 -49 -69 -79 -63 -44 -33 -35 -43 -55 -58 -71 -104 -87 0 0 0 0 0 0 0 0 0 0 0 0 0
-64 -56 -60 -70 -70 -75 -66 -70 -62 -48 -55 -40 -29 -32 -35 -34 -35 -33 -75 -96 -86 -102 -82 -50 -56 -74 -71 -92 -105 -166 0 0 0 0 0 0 0 0 0 0 0 0 0
0 -113 -72 -65 -56 -63 -63 -56 -61 -59 -42 -33 -30 -28 -30 -33 -32 -34 -45 -72 -103 -135 -141 -121 -100 -75 -96 -49 -92 -59 0 0 0 0 0 0 0 0 0 0 0 0 0
-149 -189 -149 -156 -157 -126 -137 -120 -100 -90 -53 -41 -40 -38 -30 -28 -45 -52 -42 -50 -83 -141 0 0 0 0 0 0 0 0 0 0 0 0 0 0 0 0 0 0 0 0 0
-113 -141 -150 -132 -117 -106 -123 -138 -142 -122 -91 -74 -68 -69 -115 -50 -47 -76 -38 -49 -43 -76 0 0 0 0 0 0 0 0 0 0 0 0 0 0 0 0 0 0 0 0 0
Wind_Speed
20 20 22 20 19 19 18 16 13 12 12 11 10 10 9 11 13 13 13 14 14 14 15 14 16 17 18 18 18 18 19 19 18 17 17 18 19 21 24 27 28 28 27
20 22 22 20 17 18 17 15 13 13 12 10 11 10 9 13 15 14 15 11 13 15 15 16 17 19 19 19 18 19 19 17 17 16 16 16 17 19 21 24 26 27 28
20 21 22 19 17 17 16 14 14 14 12 12 11 11 17 17 15 15 13 11 16 16 18 19 20 19 19 18 18 17 16 16 15 15 15 15 15 16 19 21 24 26 27
19 20 21 20 18 17 16 15 13 13 12 10 10 10 9 14 14 16 12 14 15 18 19 20 20 19 17 17 17 15 15 14 14 15 15 15 15 15 16 18 21 23 25
21 22 21 20 18 17 16 15 14 12 13 12 11 11 10 12 13 15 14 15 16 17 19 19 19 18 17 16 16 15 14 13 14 15 15 16 16 15 16 16 18 21 22
20 23 20 20 19 18 17 16 15 13 12 12 10 10 14 12 13 14 15 15 17 17 18 18 18 17 16 15 16 14 13 13 14 15 16 16 16 16 16 16 17 18 19
21 21 19 20 19 18 17 17 16 15 15 19 21 12 11 12 12 13 15 15 15 17 17 17 17 16 16 15 15 14 12 12 13 15 16 16 16 17 17 17 16 17 17
23 23 22 20 20 19 18 19 18 17 15 15 18 15 14 13 14 11 12 13 14 16 16 17 16 16 16 16 15 14 13 13 14 14 15 16 16 16 16 16 16 16 16
24 24 24 22 21 20 19 18 19 18 14 13 13 15 15 14 15 16 16 16 15 15 14 16 16 16 16 16 15 14 13 12 12 12 14 16 16 16 16 16 16 16 16
22 23 24 23 23 22 22 21 20 19 14 17 16 15 15 16 16 15 16 17 17 16 16 16 16 16 15 15 15 14 13 13 13 12 12 12 15 15 15 15 16 16 16
23 23 24 24 23 23 21 20 21 21 18 19 18 17 17 16 17 17 16 16 14 16 16 16 16 15 15 15 15 14 14 14 13 14 15 14 13 13 13 14 15 15 15
25 25 26 25 24 24 23 23 23 22 21 21 20 19 18 18 17 17 18 19 18 18 18 18 16 16 16 14 14 15 15 16 16 14 14 16 16 11 11 12 13 13 14
29 29 27 26 25 25 24 23 24 24 23 22 22 21 21 21 20 19 19 19 20 20 19 19 11 3 13 12 13 14 14 15 17 17 19 19 19 19 15 11 11 11 11
27 26 26 28 27 26 24 23 24 25 25 24 24 23 22 22 22 21 21 20 20 20 20 20 16 17 15 14 11 13 13 14 16 17 18 19 20 19 20 19 16 17 15
27 25 25 27 27 27 24 21 24 25 25 26 25 24 24 23 24 24 23 22 22 21 21 20 16 9 10 11 11 12 13 14 15 17 17 18 20 20 20 20 19 18 18
31 29 28 29 29 28 26 20 21 23 24 25 25 24 24 24 24 24 24 23 22 20 21 19 11 13 13 13 11 11 13 14 15 16 17 18 20 20 20 19 19 18 18
33 31 28 28 29 28 27 22 21 24 25 26 26 27 27 25 25 25 23 22 22 17 21 19 16 16 12 10 12 11 13 14 16 17 17 18 19 19 20 20 19 18 17
29 31 30 30 28 27 25 24 21 23 25 29 29 27 29 26 27 25 24 26 25 19 19 21 15 15 14 11 11 11 12 14 15 16 16 18 18 19 19 19 19 18 17
29 30 29 31 31 31 27 24 25 26 29 31 31 30 31 29 30 28 26 25 23 20 18 19 19 16 15 12 13 13 14 15 16 16 17 17 18 17 18 19 18 17 17
25 24 25 28 29 28 27 21 24 28 31 30 30 29 32 32 31 29 26 26 26 25 22 22 22 18 17 15 13 13 14 15 15 17 17 17 17 16 18 18 17 16 16
28 25 23 25 28 27 27 26 26 27 26 30 29 31 33 33 32 30 28 27 25 26 24 21 20 18 16 15 13 13 14 14 15 16 15 16 15 15 17 17 16 16 16
31 28 23 21 22 32 29 27 27 30 30 28 32 33 33 33 33 32 29 29 26 24 22 22 21 19 17 17 15 13 14 14 17 11 13 13 14 13 14 14 14 14 13
30 27 27 24 25 29 31 28 25 28 29 29 27 29 31 30 29 28 27 26 24 19 20 19 22 20 20 15 14 14 13 14 16 13 11 12 11 13 13 13 12 13 13
25 22 25 27 25 27 28 29 29 28 28 30 28 26 27 30 29 27 25 25 24 23 21 22 22 21 17 16 12 12 12 14 17 13 12 17 12 13 10 11 11 12 12
26 28 27 27 30 29 30 33 32 30 31 30 31 32 31 31 29 24 24 26 26 25 24 22 21 20 17 15 13 13 13 13 17 16 11 15 13 14 11 11 10 11 12
23 29 31 29 29 29 29 29 29 30 33 33 34 35 33 31 32 25 23 24 24 23 21 22 21 20 18 16 13 13 12 13 16 18 11 12 11 11 14 12 10 10 11
Wind_Direction
201 198 182 184 190 176 176 175 197 188 198 191 198 217 208 124 115 124 151 138 130 126 130 141 137 140 147 152 154 158 154 157 164 171 187 201 209 213 217 224 227 230 225
205 193 187 193 204 194 181 194 185 195 214 189 205 198 186 126 116 133 144 163 153 134 137 142 139 138 144 148 149 148 149 153 158 160 165 185 211 224 224 228 222 223 226
208 199 195 201 217 197 200 195 217 182 231 232 217 200 33 326 96 137 158 172 144 134 129 132 133 137 145 149 148 153 155 156 160 158 163 179 194 205 214 228 225 225 224
220 206 203 200 215 209 205 170 168 192 224 216 219 168 158 239 209 189 199 167 153 135 131 132 135 140 148 148 148 154 154 156 158 154 151 157 167 167 167 188 214 236 235
214 202 203 208 209 207 221 220 202 191 234 223 220 215 203 209 213 210 186 173 162 147 136 137 135 139 147 150 152 152 155 157 155 150 146 143 146 156 163 169 192 214 235
214 176 213 216 215 204 207 247 229 220 214 237 206 217 245 233 203 191 201 201 180 158 136 138 138 141 148 152 150 157 158 156 154 148 142 138 138 142 146 154 168 181 203
221 218 218 221 222 221 243 265 238 232 231 303 331 227 232 227 236 208 209 205 205 174 155 137 143 143 146 150 148 151 160 151 148 146 143 141 139 139 140 144 153 167 184
196 201 225 226 228 223 260 271 257 235 230 277 294 243 238 227 230 242 228 228 206 165 156 146 146 143 140 137 146 148 148 150 141 145 146 145 145 145 143 143 147 152 163
215 214 215 219 221 226 245 276 253 254 200 203 216 237 224 223 235 233 230 221 195 185 187 157 152 147 143 144 147 147 148 153 156 153 148 140 142 145 147 147 146 151 159
242 230 224 226 231 234 244 251 243 237 182 226 219 256 281 236 213 214 239 253 269 255 199 167 159 160 152 149 151 152 147 142 144 159 170 176 152 145 150 152 150 147 147
249 242 230 234 231 227 229 226 232 254 216 244 254 275 285 265 223 211 220 237 236 246 244 217 165 170 158 147 139 142 140 139 144 135 126 144 149 140 157 160 149 150 152
247 245 228 233 241 237 233 253 236 262 238 246 247 259 263 251 233 231 236 250 245 245 242 236 196 182 162 141 131 111 105 79 102 132 121 47 58 156 177 173 147 137 132
246 241 243 237 236 242 251 270 252 238 248 249 257 258 258 254 245 248 260 254 248 258 241 249 113 186 183 82 77 82 73 84 54 43 358 350 330 306 268 175 129 84 120
250 255 256 245 246 248 267 273 250 240 238 249 255 259 264 262 248 247 262 263 251 249 250 228 183 185 329 357 52 29 55 58 34 14 355 345 333 324 329 349 7 340 1
256 260 265 255 257 250 269 290 271 259 259 253 259 269 268 270 260 249 249 257 262 253 244 272 236 58 123 147 105 93 49 38 23 20 14 16 2 351 348 351 354 354 354
252 258 264 259 260 263 269 293 290 275 271 260 262 271 274 276 276 270 268 266 273 278 272 280 337 346 359 8 40 29 22 18 10 7 0 356 355 354 356 357 359 358 357
258 260 267 268 266 271 274 289 294 282 273 268 266 261 265 278 274 272 277 282 280 312 286 307 324 332 3 22 10 10 11 9 6 0 360 1 2 2 2 1 2 4 3
272 267 269 269 271 278 279 286 291 288 279 267 260 270 259 273 270 277 280 272 278 304 309 300 328 333 336 359 10 11 10 9 7 4 4 2 0 0 3 5 4 4 6
271 272 273 272 271 270 275 286 286 285 275 268 264 266 260 269 269 276 280 282 288 301 309 308 310 322 329 349 351 352 354 356 358 3 2 2 2 3 5 4 6 8 8
275 276 278 277 274 276 278 294 289 280 273 274 273 275 263 264 270 279 286 283 281 287 297 299 300 311 317 328 338 342 341 345 351 351 353 357 2 4 3 6 7 8 6
273 276 278 277 276 277 281 285 286 285 283 277 279 276 271 268 271 279 285 287 291 288 292 300 305 310 315 322 327 332 334 340 341 344 351 351 358 360 352 356 4 10 9
270 273 277 279 277 271 279 284 284 282 282 284 280 277 277 275 275 279 286 286 293 295 294 295 299 303 308 312 318 323 328 330 330 340 343 347 350 359 1 2 8 9 13
269 274 274 278 279 276 278 283 286 284 283 284 287 286 284 285 287 289 292 293 297 299 295 294 293 297 302 305 310 314 317 323 329 339 344 343 355 354 359 4 6 9 6
275 279 277 276 280 280 280 282 283 283 284 283 286 289 289 287 289 289 292 294 295 296 295 292 292 297 300 306 304 310 315 322 327 332 334 328 339 347 357 0 5 6 8
276 274 277 278 277 280 281 281 282 284 283 285 284 284 287 287 288 289 287 288 291 292 294 294 293 295 297 300 302 308 308 312 317 323 326 335 335 340 350 354 359 4 8
285 274 273 274 280 282 284 284 286 285 282 283 283 284 285 286 286 284 283 283 282 284 287 289 290 292 293 295 292 296 299 299 311 318 320 329 335 340 336 349 358 3 6